Date String (YYYY-MM-DD hh:mm:ss) UTC,Instrument flags,Ambient pressure (hPa),Sample flow (lpm),Bypass flow (lpm),Sample temperature (°C),Ambient temperature (°C),ASC tube jacket temperature (°C),LED temperature (°C),Box temperature (°C),Sample RH (%),Span deviation,Mass concentration (μg/m³),Mass concentration (μg/m³),Mass concentration (μg/m³)
DateTimeUTC,F1_M11,P_M11,Q1_M11,Q2_M11,T1_M11,T2_M11,T3_M11,T4_M11,T5_M11,U1_M11,ZSPAN_M11,X2_M11,X0_M11,X1_M11
2022-09-05 23:00:00,,0827.5,5.01,0.00,29.5,26.6,00.0,38.1,31.3,17.8,0000.0,0007.08,0016.05,0005.88
2022-09-05 23:01:00,,0827.4,5.00,0.00,29.5,26.8,00.0,38.1,31.4,18.1,0000.0,0007.16,0015.60,0005.87
2022-09-05 23:02:00,,0827.4,5.00,0.00,29.5,27.1,00.0,38.1,31.3,18.6,0000.0,0007.16,0016.20,0005.86
2022-09-05 23:03:00,,0827.4,5.00,0.00,29.4,27.4,00.0,38.1,31.2,18.5,0000.0,0007.24,0016.62,0005.85
2022-09-05 23:04:00,,0827.4,5.00,0.00,29.5,27.7,00.0,38.1,31.3,18.5,0000.0,0007.25,0016.73,0005.84
2022-09-05 23:05:00,,0827.4,5.00,0.00,29.5,28.0,00.0,38.1,31.4,18.4,0000.0,0007.21,0016.71,0005.83
2022-09-05 23:06:00,,0827.4,5.00,0.00,29.5,28.2,00.0,38.1,31.5,18.2,0000.0,0007.15,0015.89,0005.80
2022-09-05 23:07:00,,0827.4,4.99,0.00,29.6,27.4,00.0,38.1,31.4,18.1,0000.0,0007.17,0016.01,0005.79
2022-09-05 23:08:00,,0827.4,5.00,0.00,29.5,26.5,00.0,38.1,31.2,17.9,0000.0,0007.21,0016.96,0005.78
2022-09-05 23:09:00,,0827.4,4.98,0.00,29.5,26.7,00.0,38.1,31.2,17.9,0000.0,0007.23,0017.11,0005.78
2022-09-05 23:10:00,,0827.4,5.01,0.00,29.4,27.0,00.0,38.1,31.2,18.2,0000.0,0007.14,0016.92,0005.78
2022-09-05 23:11:00,,0827.4,4.99,0.00,29.4,27.3,00.0,38.0,31.1,17.9,0000.0,0007.12,0017.70,0005.77
2022-09-05 23:12:00,,0827.4,5.01,0.00,29.4,27.6,00.0,38.0,31.2,17.8,0000.0,0007.03,0017.62,0005.75
2022-09-05 23:13:00,,0827.4,5.01,0.00,29.5,27.9,00.0,38.1,31.3,17.8,0000.0,0006.98,0016.73,0005.75
2022-09-05 23:14:00,,0827.4,5.02,0.00,29.5,28.2,00.0,38.1,31.4,17.7,0000.0,0006.92,0016.22,0005.76
2022-09-05 23:15:00,,0827.4,4.98,0.00,29.6,28.1,00.0,38.1,31.4,17.3,0000.0,0006.96,0017.11,0005.77
2022-09-05 23:16:00,,0827.4,5.00,0.00,29.5,26.9,00.0,38.1,31.3,17.4,0000.0,0006.99,0017.15,0005.80
2022-09-05 23:17:00,,0827.4,5.00,0.00,29.5,26.7,00.0,38.1,31.3,17.4,0000.0,0007.07,0017.63,0005.84
2022-09-05 23:18:00,,0827.4,5.00,0.00,29.5,27.0,00.0,38.1,31.3,17.4,0000.0,0007.11,0017.60,0005.88
2022-09-05 23:19:00,,0827.4,5.01,0.00,29.4,27.3,00.0,38.1,31.2,17.6,0000.0,0007.14,0017.65,0005.90
2022-09-05 23:20:00,,0827.3,4.99,0.00,29.4,27.6,00.0,38.1,31.2,17.9,0000.0,0007.16,0017.70,0005.91
2022-09-05 23:21:00,,0827.4,5.00,0.00,29.5,27.9,00.0,38.1,31.3,17.9,0000.0,0007.22,0018.20,0005.93
2022-09-05 23:22:00,,0827.4,5.01,0.00,29.5,28.2,00.0,38.1,31.4,17.5,0000.0,0007.24,0017.80,0005.95
2022-09-05 23:23:00,,0827.3,4.98,0.00,29.6,28.0,00.0,38.1,31.5,17.2,0000.0,0007.25,0018.26,0005.98
2022-09-05 23:24:00,,0827.3,5.01,0.00,29.5,27.0,00.0,38.1,31.4,17.3,0000.0,0007.27,0018.94,0006.00
2022-09-05 23:25:00,,0827.3,5.00,0.00,29.5,26.7,00.0,38.1,31.4,17.4,0000.0,0007.28,0018.98,0006.01
2022-09-05 23:26:00,,0827.3,5.01,0.00,29.5,27.0,00.0,38.1,31.3,17.3,0000.0,0007.26,0018.92,0006.01
2022-09-05 23:27:00,,0827.3,4.99,0.00,29.5,27.3,00.0,38.1,31.2,17.3,0000.0,0007.33,0019.78,0006.01
2022-09-05 23:28:00,,0827.2,5.00,0.00,29.5,27.6,00.0,38.1,31.2,17.3,0000.0,0007.28,0019.94,0006.00
2022-09-05 23:29:00,,0827.2,5.00,0.00,29.5,27.9,00.0,38.1,31.3,17.5,0000.0,0007.28,0019.91,0005.99
2022-09-05 23:30:00,,0827.2,5.01,0.00,29.5,28.1,00.0,38.1,31.4,17.4,0000.0,0007.25,0019.33,0005.99
2022-09-05 23:31:00,,0827.2,4.98,0.00,29.6,28.3,00.0,38.1,31.5,17.3,0000.0,0007.21,0018.53,0006.00
2022-09-05 23:32:00,,0827.2,5.00,0.00,29.6,27.6,00.0,38.1,31.4,17.1,0000.0,0007.18,0017.59,0006.00
2022-09-05 23:33:00,,0827.2,5.00,0.00,29.5,26.7,00.0,38.1,31.3,17.0,0000.0,0007.17,0018.34,0006.01
2022-09-05 23:34:00,,0827.3,5.00,0.00,29.5,26.9,00.0,38.1,31.3,17.4,0000.0,0007.19,0018.03,0006.02
2022-09-05 23:35:00,,0827.2,5.00,0.00,29.5,27.2,00.0,38.1,31.2,17.6,0000.0,0007.21,0018.53,0006.03
2022-09-05 23:36:00,,0827.2,5.00,0.00,29.5,27.5,00.0,38.1,31.2,17.5,0000.0,0007.25,0019.54,0006.03
2022-09-05 23:37:00,,0827.2,5.00,0.00,29.5,27.8,00.0,38.1,31.3,17.8,0000.0,0007.24,0019.48,0006.03
2022-09-05 23:38:00,,0827.2,5.01,0.00,29.5,28.1,00.0,38.1,31.4,17.4,0000.0,0007.23,0019.12,0006.02
2022-09-05 23:39:00,,0827.1,5.00,0.00,29.6,28.3,00.0,38.1,31.5,17.4,0000.0,0007.23,0019.62,0006.02
2022-09-05 23:40:00,,0827.2,4.99,0.00,29.6,27.6,00.0,38.2,31.4,17.5,0000.0,0007.23,0020.48,0006.02
2022-09-05 23:41:00,,0827.2,5.00,0.00,29.6,26.7,00.0,38.1,31.3,16.9,0000.0,0007.27,0020.05,0006.03
2022-09-05 23:42:00,,0827.2,4.99,0.00,29.5,26.8,00.0,38.1,31.4,17.0,0000.0,0007.27,0020.08,0006.02
2022-09-05 23:43:00,,0827.2,4.99,0.00,29.5,27.1,00.0,38.1,31.3,17.0,0000.0,0007.29,0020.09,0006.02
2022-09-05 23:44:00,,0827.1,5.01,0.00,29.5,27.5,00.0,38.1,31.2,17.5,0000.0,0007.26,0019.50,0006.00
2022-09-05 23:45:00,,0827.4,5.00,0.00,29.5,27.8,00.0,38.1,31.3,17.4,0000.0,0007.27,0019.86,0005.98
2022-09-05 23:46:00,,0827.2,5.01,0.00,29.5,28.1,00.0,38.1,31.4,16.9,0000.0,0007.25,0019.05,0005.97
2022-09-05 23:47:00,,0827.2,4.98,0.00,29.6,28.3,00.0,38.1,31.5,17.1,0000.0,0007.21,0017.99,0005.97
2022-09-05 23:48:00,,0827.2,5.01,0.00,29.6,27.5,00.0,38.2,31.4,16.8,0000.0,0007.19,0017.11,0005.97
2022-09-05 23:49:00,,0827.5,4.99,0.00,29.5,26.6,00.0,38.1,31.3,16.9,0000.0,0007.21,0016.77,0005.97
2022-09-05 23:50:00,,0827.3,5.00,0.00,29.5,26.8,00.0,38.1,31.4,16.8,0000.0,0007.20,0015.56,0005.98
2022-09-05 23:51:00,,0827.3,5.00,0.00,29.5,27.1,00.0,38.1,31.2,16.8,0000.0,0007.21,0014.71,0005.98
2022-09-05 23:52:00,,0827.2,5.01,0.00,29.5,27.4,00.0,38.1,31.2,16.9,0000.0,0007.14,0014.97,0005.96
2022-09-05 23:53:00,,0827.3,5.00,0.00,29.5,27.7,00.0,38.1,31.3,16.8,0000.0,0007.16,0015.55,0005.95
2022-09-05 23:54:00,,0827.3,5.00,0.00,29.5,28.0,00.0,38.1,31.4,16.6,0000.0,0007.19,0016.17,0005.96
2022-09-05 23:55:00,,0827.3,5.00,0.00,29.6,28.3,00.0,38.1,31.5,16.6,0000.0,0007.25,0015.76,0005.97
2022-09-05 23:56:00,,0827.3,4.98,0.00,29.6,28.1,00.0,38.2,31.5,16.8,0000.0,0007.26,0015.17,0005.98
2022-09-05 23:57:00,,0827.2,5.01,0.00,29.6,27.0,00.0,38.2,31.4,16.7,0000.0,0007.22,0015.18,0005.99
2022-09-05 23:58:00,,0827.4,5.00,0.00,29.6,26.7,00.0,38.1,31.4,16.4,0000.0,0007.19,0015.11,0005.98
2022-09-05 23:59:00,,0827.2,5.01,0.00,29.6,27.0,00.0,38.1,31.4,16.6,0000.0,0007.24,0015.66,0005.97
